Flag for Germany Weather past 2 weeks in Uelzen, Lower Saxony, Germany

Now
54 °F

Passing clouds.


Feels Like: 53 °F
Forecast: 38 / 62 °F
Wind: 5 mph from Southeast

Location: Fassberg


UV Index: 3 (Moderate)

Visibility: N/A


Pressure: 30.45 "Hg

Humidity: 47%

Dew point: 34 °F

Location of UelzenLocation

Historic Weather in Uelzen

°F

Uelzen temperature yesterday

Maximum temperature yesterday: 50 °F (at 12:20 PM)
Minimum temperature yesterday: 34 °F (at 11:20 PM)
Average temperature yesterday: 43 °F

Past Weeks' High & Low Weather Summary

 TemperatureHumidityPressure
High68 °F (Apr 2, 3:20 PM)100% (Apr 2, 2:20 AM)30.48 "Hg (Apr 2, 2:20 AM)
Low27 °F (Apr 16, 4:20 AM)38% (Apr 2, 3:20 PM)29.65 "Hg (Apr 3, 2:20 AM)
Average49 °F79%29.96 "Hg
* Reported Apr 1 12:20 PM — Apr 16 12:20 PM, Uelzen, Weather by CustomWeather, © 2014

Note: Actual official high and low records may vary slightly from our data, if they occured in-between our weather recording intervals... More about our weather records

Advertising

Historic Weather Conditions — Data for Previous 24 hours

 ConditionsComfort  
Time TempWeatherWind HumidityBarometerVisibility
12:20 PM
Apr 16
54 °FPassing clouds.5 mph47%30.45 "HgN/A
11:20 AM52 °FPassing clouds.2 mph50%30.45 "HgN/A
10:20 AM48 °FPassing clouds.2 mph58%30.48 "HgN/A
9:20 AM45 °FPassing clouds.2 mph66%30.48 "HgN/A
8:20 AM36 °FPassing clouds.No wind81%30.45 "HgN/A
7:20 AM28 °FPassing clouds.1 mph93%30.45 "HgN/A
6:20 AM27 °FFog.1 mph93%30.42 "HgN/A
5:20 AM28 °FFog.1 mph93%30.42 "HgN/A
4:20 AM27 °FFog.1 mph93%30.39 "HgN/A
3:20 AM28 °FFog.No wind93%30.39 "HgN/A
2:20 AM28 °FFog.2 mph93%30.36 "HgN/A
12:20 AM32 °FFog.2 mph87%30.36 "HgN/A
11:20 PM
Apr 15
34 °FFog.No wind93%30.33 "HgN/A
10:20 PM36 °FFog.2 mph93%30.30 "HgN/A
9:20 PM41 °FPassing clouds.6 mph81%30.30 "HgN/A
8:20 PM46 °FPartly sunny.6 mph66%30.27 "HgN/A
7:20 PM46 °FSprinkles. Scattered clouds.6 mph76%30.24 "HgN/A
6:20 PM46 °FPartly sunny.9 mph71%30.21 "HgN/A
5:20 PM48 °FSprinkles. Broken clouds.10 mph71%30.21 "HgN/A
5:00 PM46 °FBroken clouds.8 mph71%30.18 "HgN/A
4:20 PM50 °FSprinkles. Broken clouds.14 mph54%30.18 "HgN/A
3:20 PM50 °FScattered showers. Broken clouds.16 mph54%30.18 "HgN/A
2:20 PM50 °FBroken clouds.17 mph50%30.18 "HgN/A
1:20 PM50 °FPartly sunny.13 mph50%30.18 "HgN/A
Weather by CustomWeather, © 2014

See weather overview